Hourly Data Report for October 03, 2014

All times are specified in Local Standard Time (LST). Add 1 hour to adjust for Daylight Saving Time where and when it is observed.

SAINT JOHN A
NEW BRUNSWICK

45°18'58.000" N
65°53'24.000" W
108.80 m
8104901
71609
YSJ

Download Data

Hourly Data (October 2014)
Hourly Data Report for October 3, 2014
Temp Definition
°C
Dew Point Temp Definition
°C
Rel Hum Definition
%
Wind Dir Definition
10's deg

Wind Spd Definition
km/h
Visibility Definition
km
Stn Press Definition
kPa
Hmdx Definition


Wind Chill Definition


Weather Definition


TIME
00:00 Legend Double Dagger 7.7 7.3 97 34 15 24.1 100.90     LegendNANA
01:00 Legend Double Dagger 8.5 8.2 98 36 14 24.1 100.90     LegendNANA
02:00 Legend Double Dagger 8.2 8.1 99 36 16 24.1 100.84     Mainly Clear
03:00 Legend Double Dagger 7.5 7.5 100 4 13 1.6 100.85     Fog
04:00 Legend Double Dagger 6.9 6.9 100 2 12 6.4 100.85     Fog
05:00 Legend Double Dagger 6.4 6.4 100 3 12 9.7 100.85     Fog
06:00 Legend Double Dagger 5.2 5.2 100 3 14 12.9 100.78     LegendNANA
07:00 Legend Double Dagger 7.0 7.0 100 1 15 12.9 100.80     LegendNANA
08:00 Legend Double Dagger 7.7 7.7 100 2 17 4.8 100.85     Fog
09:00 Legend Double Dagger 9.2 8.1 93 2 17 24.1 100.87     LegendNANA
10:00 Legend Double Dagger 10.9 8.3 84 3 15 24.1 100.82     LegendNANA
11:00 Legend Double Dagger 14.6 9.5 71 2 15 24.1 100.76     Mostly Cloudy
12:00 Legend Double Dagger 15.2 8.7 65 35 13 24.1 100.69     LegendNANA
13:00 Legend Double Dagger 17.1 9.6 61 36 13 24.1 100.59     LegendNANA
14:00 Legend Double Dagger 17.9 10.1 60 3 10 24.1 100.54     Mostly Cloudy
15:00 Legend Double Dagger 18.1 10.6 61 2 14 24.1 100.47     LegendNANA
16:00 Legend Double Dagger 17.9 12.0 68 14 13 24.1 100.42     LegendNANA
17:00 Legend Double Dagger 15.4 10.0 70 10 19 24.1 100.42     Mainly Clear
18:00 Legend Double Dagger 13.3 9.0 75 9 17 24.1 100.37     LegendNANA
19:00 Legend Double Dagger 12.0 8.9 81 7 12 24.1 100.36     LegendNANA
20:00 Legend Double Dagger 10.8 8.7 87 1 10 24.1 100.36     Clear
21:00 Legend Double Dagger 9.2 8.1 93 5 12 24.1 100.33     LegendNANA
22:00 Legend Double Dagger 9.5 8.6 94 4 10 24.1 100.31     LegendNANA
23:00 Legend Double Dagger 10.6 9.5 93 4 9 24.1 100.28     Mostly Cloudy

Notes on Data Quality.

Legend

  • E = Estimated
  • M = Missing
  • NA = Not Available
  • ‡ = Partner data that is not subject to review by the National Climate Archives
Date modified: